DLH3NZ EDDF-ENGM

Flight info

Callsign DLH3NZ
Flight time 1h 43m
Altitude 37000
Route MARUN3W/25C MARUN Y150 TOLGI DCT ALASA DCT INVOL DCT SABAK/N0449F360 L997 LUNIP
Aircraft A320/M-SDE3FGHIRWY/LB1

Departure

Time 2026-05-07 14:25
Airport Frankfurt Main Airport (EDDF)

Arrival

Time 2026-05-07 16:08
Airport Oslo-Gardermoen International Airport (ENGM)
Time Latitude Longitude Altitude Speed Heading
2026-05-07 13:19 50.04814 8.57180 356 ft 0 kts 114°
2026-05-07 14:15 50.04821 8.57157 365 ft 4 kts 114°
2026-05-07 14:15 50.04832 8.57122 363 ft 2 kts 118°
2026-05-07 14:15 50.04843 8.57092 362 ft 4 kts 133°
2026-05-07 14:16 50.04856 8.57076 364 ft 0 kts 156°
2026-05-07 14:16 50.04838 8.57072 363 ft 4 kts 200°
2026-05-07 14:16 50.04815 8.57051 360 ft 4 kts 211°
2026-05-07 14:16 50.04792 8.57033 357 ft 2 kts 205°
2026-05-07 14:17 50.04791 8.57032 357 ft 1 kts 205°
2026-05-07 14:19 50.04766 8.57014 361 ft 7 kts 205°
2026-05-07 14:20 50.04706 8.56972 357 ft 11 kts 205°
2026-05-07 14:20 50.04636 8.56923 360 ft 11 kts 199°
2026-05-07 14:20 50.04562 8.56895 361 ft 9 kts 193°
2026-05-07 14:20 50.04512 8.56876 359 ft 6 kts 193°
2026-05-07 14:21 50.04450 8.56858 359 ft 11 kts 189°
2026-05-07 14:21 50.04373 8.56836 360 ft 11 kts 191°
2026-05-07 14:21 50.04302 8.56833 362 ft 10 kts 156°
2026-05-07 14:21 50.04280 8.56916 359 ft 8 kts 84°
2026-05-07 14:22 50.04299 8.56997 366 ft 8 kts 70°
2026-05-07 14:22 50.04322 8.57096 369 ft 9 kts 69°
2026-05-07 14:22 50.04344 8.57188 367 ft 11 kts 70°
2026-05-07 14:22 50.04377 8.57324 363 ft 14 kts 69°
2026-05-07 14:23 50.04408 8.57455 361 ft 12 kts 69°
2026-05-07 14:23 50.04428 8.57572 367 ft 9 kts 93°
2026-05-07 14:23 50.04404 8.57642 366 ft 10 kts 136°
2026-05-07 14:23 50.04323 8.57693 367 ft 13 kts 161°
2026-05-07 14:24 50.04260 8.57643 362 ft 9 kts 250°
2026-05-07 14:24 50.04243 8.57569 363 ft 6 kts 249°
2026-05-07 14:24 50.04225 8.57494 366 ft 20 kts 250°
2026-05-07 14:24 50.04088 8.56915 363 ft 91 kts 249°
2026-05-07 14:25 50.03797 8.55701 352 ft 145 kts 249°
2026-05-07 14:25 50.03423 8.54098 717 ft 162 kts 250°
2026-05-07 14:25 50.03054 8.52423 1355 ft 169 kts 253°
2026-05-07 14:25 50.02637 8.50670 1955 ft 181 kts 243°
2026-05-07 14:26 50.01787 8.49070 2379 ft 204 kts 219°
2026-05-07 14:26 50.00495 8.48086 2960 ft 211 kts 194°
2026-05-07 14:26 49.99034 8.47724 3605 ft 213 kts 189°
2026-05-07 14:26 49.97559 8.47399 4240 ft 215 kts 189°
2026-05-07 14:27 49.96079 8.47043 4858 ft 216 kts 195°
2026-05-07 14:27 49.94596 8.46383 5247 ft 229 kts 198°
2026-05-07 14:27 49.93001 8.45634 5652 ft 247 kts 202°
2026-05-07 14:27 49.91579 8.44238 6398 ft 248 kts 230°
2026-05-07 14:28 49.90740 8.41938 7143 ft 247 kts 257°
2026-05-07 14:28 49.90709 8.39294 7907 ft 248 kts 285°
2026-05-07 14:28 49.91495 8.36925 8682 ft 251 kts 313°
2026-05-07 14:28 49.92930 8.35384 9457 ft 255 kts 335°
2026-05-07 14:29 49.94627 8.34270 9884 ft 274 kts 336°
2026-05-07 14:29 49.96423 8.33119 10378 ft 288 kts 336°
2026-05-07 14:29 49.98346 8.31884 10600 ft 311 kts 336°
2026-05-07 14:29 50.00415 8.30553 10793 ft 333 kts 336°
2026-05-07 14:30 50.02618 8.29403 11258 ft 344 kts 346°
2026-05-07 14:30 50.05010 8.28955 11905 ft 350 kts 358°
2026-05-07 14:30 50.07446 8.29300 12580 ft 355 kts 10°
2026-05-07 14:30 50.09829 8.30397 13264 ft 360 kts 17°
2026-05-07 14:31 50.12212 8.31650 13936 ft 363 kts 17°
2026-05-07 14:31 50.14617 8.32908 14527 ft 367 kts 17°
2026-05-07 14:31 50.17049 8.34179 15116 ft 370 kts 17°
2026-05-07 14:31 50.19501 8.35463 15695 ft 374 kts 17°
2026-05-07 14:32 50.21940 8.36748 16273 ft 377 kts 17°
2026-05-07 14:32 50.24435 8.38068 16842 ft 380 kts 17°
2026-05-07 14:32 50.26955 8.39401 17408 ft 384 kts 17°
2026-05-07 14:32 50.29495 8.40743 17960 ft 387 kts 17°
2026-05-07 14:33 50.32056 8.42110 18480 ft 391 kts 18°
2026-05-07 14:33 50.34636 8.43507 18947 ft 394 kts 18°
2026-05-07 14:33 50.37226 8.44922 19448 ft 396 kts 18°
2026-05-07 14:33 50.39835 8.46352 19935 ft 398 kts 18°
2026-05-07 14:34 50.42462 8.47796 20403 ft 401 kts 18°
2026-05-07 14:34 50.45067 8.49232 20852 ft 404 kts 19°
2026-05-07 14:34 50.47727 8.50695 21302 ft 406 kts 18°
2026-05-07 14:34 50.50420 8.52089 21746 ft 409 kts 17°
2026-05-07 14:35 50.53150 8.53409 22181 ft 412 kts 15°
2026-05-07 14:35 50.55905 8.54691 22612 ft 414 kts 15°
2026-05-07 14:35 50.58679 8.55964 23037 ft 417 kts 15°
2026-05-07 14:35 50.61479 8.57256 23440 ft 420 kts 15°
2026-05-07 14:36 50.64292 8.58574 23804 ft 423 kts 15°
2026-05-07 14:36 50.67079 8.59906 24153 ft 426 kts 16°
2026-05-07 14:36 50.69917 8.61281 24520 ft 428 kts 16°
2026-05-07 14:36 50.72768 8.62669 24879 ft 430 kts 16°
2026-05-07 14:37 50.75625 8.64062 25230 ft 431 kts 16°
2026-05-07 14:37 50.81122 8.67919 25878 ft 437 kts 32°
2026-05-07 14:37 50.83532 8.70868 26216 ft 440 kts 42°
2026-05-07 14:38 50.85609 8.74434 26549 ft 442 kts 51°
2026-05-07 14:38 50.87457 8.78256 26858 ft 444 kts 52°
2026-05-07 14:38 50.89329 8.82162 27183 ft 446 kts 52°
2026-05-07 14:38 50.91201 8.86096 27492 ft 448 kts 52°
2026-05-07 14:39 50.93082 8.90041 27785 ft 450 kts 52°
2026-05-07 14:39 50.94971 8.94009 28071 ft 452 kts 52°
2026-05-07 14:39 50.96864 8.97991 28363 ft 453 kts 52°
2026-05-07 14:39 50.98765 9.01995 28653 ft 455 kts 52°
2026-05-07 14:40 51.00673 9.06015 28911 ft 457 kts 52°
2026-05-07 14:40 51.02594 9.10053 29175 ft 459 kts 52°
2026-05-07 14:40 51.04490 9.14052 29456 ft 460 kts 52°
2026-05-07 14:40 51.06415 9.18114 29840 ft 459 kts 52°
2026-05-07 14:41 51.08461 9.21989 30221 ft 457 kts 44°
2026-05-07 14:41 51.10852 9.25293 30519 ft 455 kts 35°
2026-05-07 14:41 51.13537 9.27936 30820 ft 453 kts 25°
2026-05-07 14:41 51.16441 9.29865 31116 ft 451 kts 17°
2026-05-07 14:42 51.19481 9.31083 31416 ft 450 kts 11°
2026-05-07 14:42 51.22541 9.32131 31706 ft 450 kts 11°
2026-05-07 14:42 51.25561 9.33168 31992 ft 450 kts 11°
2026-05-07 14:42 51.28619 9.34221 32299 ft 450 kts 12°
2026-05-07 14:43 51.31676 9.35280 32609 ft 449 kts 11°
2026-05-07 14:43 51.34726 9.36342 32927 ft 448 kts 11°
2026-05-07 14:43 51.37771 9.37407 33244 ft 447 kts 11°
2026-05-07 14:43 51.40812 9.38472 33538 ft 447 kts 11°
2026-05-07 14:44 51.43848 9.39534 33875 ft 446 kts 12°
2026-05-07 14:44 51.46875 9.40591 34187 ft 445 kts 11°
2026-05-07 14:44 51.49860 9.41632 34429 ft 445 kts 11°
2026-05-07 14:44 51.52890 9.42689 34651 ft 446 kts 11°
2026-05-07 14:45 51.55923 9.43752 34840 ft 447 kts 11°
2026-05-07 14:45 51.58966 9.44821 35023 ft 448 kts 11°
2026-05-07 14:45 51.62017 9.45898 35209 ft 449 kts 11°
2026-05-07 14:45 51.65074 9.46986 35387 ft 450 kts 11°
2026-05-07 14:46 51.68134 9.48074 35577 ft 451 kts 12°
2026-05-07 14:46 51.71202 9.49162 35751 ft 452 kts 11°
2026-05-07 14:46 51.74236 9.50238 35910 ft 453 kts 12°
2026-05-07 14:46 51.77313 9.51328 36089 ft 454 kts 11°
2026-05-07 14:47 51.80402 9.52420 36261 ft 455 kts 12°
2026-05-07 14:47 51.83509 9.53375 36459 ft 454 kts
2026-05-07 14:47 51.86653 9.53826 36624 ft 454 kts
2026-05-07 14:47 51.89807 9.54244 36801 ft 455 kts
2026-05-07 14:48 51.92964 9.54667 36985 ft 455 kts
2026-05-07 14:48 51.96128 9.55094 37071 ft 457 kts
2026-05-07 14:48 52.02433 9.55958 37079 ft 458 kts
2026-05-07 14:49 52.08788 9.56824 37091 ft 458 kts
2026-05-07 14:49 52.15146 9.57690 37091 ft 458 kts
2026-05-07 14:50 52.21501 9.58552 37094 ft 458 kts
2026-05-07 14:50 52.27809 9.59409 37095 ft 458 kts
2026-05-07 14:51 52.34164 9.60275 37103 ft 458 kts
2026-05-07 14:51 52.40520 9.61147 37119 ft 458 kts
2026-05-07 14:52 52.46870 9.62030 37113 ft 458 kts
2026-05-07 14:52 52.53220 9.62910 37113 ft 458 kts
2026-05-07 14:53 52.59524 9.63779 37105 ft 458 kts
2026-05-07 14:53 52.65868 9.64655 37101 ft 458 kts
2026-05-07 14:54 52.72213 9.65543 37088 ft 458 kts
2026-05-07 14:54 52.78562 9.66438 37089 ft 458 kts
2026-05-07 14:55 52.84865 9.67325 37081 ft 458 kts
2026-05-07 14:55 52.91208 9.68220 37080 ft 458 kts
2026-05-07 14:56 52.97559 9.69103 37082 ft 458 kts
2026-05-07 14:56 53.03910 9.70003 37080 ft 458 kts
2026-05-07 14:57 53.10218 9.70901 37075 ft 458 kts
2026-05-07 14:57 53.16573 9.71806 37083 ft 458 kts
2026-05-07 14:58 53.22924 9.72716 37080 ft 458 kts
2026-05-07 14:58 53.29279 9.73627 37079 ft 458 kts
2026-05-07 14:59 53.35583 9.74545 37091 ft 459 kts
2026-05-07 14:59 53.41950 9.75460 37075 ft 459 kts
2026-05-07 15:00 53.48311 9.76369 37083 ft 459 kts
2026-05-07 15:00 53.54675 9.77280 37085 ft 459 kts
2026-05-07 15:01 53.61040 9.78210 37086 ft 459 kts
2026-05-07 15:01 53.67367 9.79137 37081 ft 460 kts
2026-05-07 15:02 53.73738 9.80079 37082 ft 460 kts
2026-05-07 15:02 53.80116 9.81015 37087 ft 460 kts
2026-05-07 15:03 53.86497 9.81959 37094 ft 460 kts
2026-05-07 15:03 53.92829 9.82897 37097 ft 460 kts
2026-05-07 15:04 53.99202 9.83832 37111 ft 459 kts
2026-05-07 15:04 54.05571 9.84777 37102 ft 459 kts
2026-05-07 15:05 54.11936 9.85726 37110 ft 459 kts
2026-05-07 15:05 54.18295 9.86686 37104 ft 459 kts
2026-05-07 15:06 54.24610 9.87632 37136 ft 459 kts
2026-05-07 15:06 54.30967 9.88583 37142 ft 458 kts
2026-05-07 15:07 54.37324 9.89524 37149 ft 458 kts
2026-05-07 15:07 54.43671 9.90486 37148 ft 458 kts
2026-05-07 15:08 54.49967 9.91455 37151 ft 457 kts
2026-05-07 15:08 54.56299 9.92426 37147 ft 457 kts
2026-05-07 15:09 54.62631 9.93394 37145 ft 456 kts
2026-05-07 15:09 54.68948 9.94355 37140 ft 455 kts
2026-05-07 15:10 54.75212 9.95318 37137 ft 455 kts
2026-05-07 15:10 54.81497 9.96486 37139 ft 454 kts 11°
2026-05-07 15:11 54.87653 9.98976 37151 ft 454 kts 13°
2026-05-07 15:11 54.93795 10.01508 37152 ft 453 kts 13°
2026-05-07 15:12 54.99888 10.04028 37151 ft 453 kts 13°
2026-05-07 15:12 55.06024 10.06565 37148 ft 453 kts 13°
2026-05-07 15:13 55.12152 10.09104 37148 ft 453 kts 13°
2026-05-07 15:13 55.18278 10.11666 37143 ft 453 kts 13°
2026-05-07 15:14 55.24359 10.14222 37138 ft 452 kts 13°
2026-05-07 15:14 55.30479 10.16801 37130 ft 452 kts 13°
2026-05-07 15:15 55.36596 10.19381 37136 ft 452 kts 13°
2026-05-07 15:15 55.42709 10.21971 37131 ft 452 kts 13°
2026-05-07 15:16 55.48782 10.24544 37129 ft 452 kts 13°
2026-05-07 15:16 55.54899 10.27141 37130 ft 452 kts 13°
2026-05-07 15:17 55.61009 10.29750 37131 ft 452 kts 13°
2026-05-07 15:17 55.67116 10.32370 37127 ft 451 kts 13°
2026-05-07 15:18 55.72189 10.34551 37125 ft 452 kts 13°
2026-05-07 15:18 55.79284 10.37613 37123 ft 451 kts 13°
2026-05-07 15:19 55.85389 10.40251 37124 ft 451 kts 13°
2026-05-07 15:19 55.90462 10.42446 37132 ft 452 kts 12°
2026-05-07 15:20 55.96568 10.45099 37133 ft 452 kts 13°
2026-05-07 15:20 56.03663 10.48195 37133 ft 452 kts 13°
2026-05-07 15:21 56.08782 10.50433 37129 ft 452 kts 12°
2026-05-07 15:21 56.14845 10.53083 37141 ft 452 kts 12°
2026-05-07 15:22 56.20950 10.55771 37138 ft 451 kts 12°
2026-05-07 15:22 56.27043 10.58482 37156 ft 451 kts 12°
2026-05-07 15:23 56.33137 10.61185 37156 ft 451 kts 12°
2026-05-07 15:23 56.39190 10.63871 37163 ft 451 kts 12°
2026-05-07 15:24 56.45276 10.66586 37153 ft 450 kts 12°
2026-05-07 15:24 56.51358 10.69317 37148 ft 450 kts 12°
2026-05-07 15:25 56.57436 10.72063 37147 ft 450 kts 12°
2026-05-07 15:25 56.63473 10.74791 37142 ft 450 kts 12°
2026-05-07 15:26 56.69548 10.77534 37142 ft 450 kts 12°
2026-05-07 15:26 56.75623 10.80285 37144 ft 450 kts 12°
2026-05-07 15:27 56.81698 10.83044 37145 ft 450 kts 12°
2026-05-07 15:27 56.87732 10.85799 37136 ft 450 kts 12°
2026-05-07 15:28 56.93809 10.88585 37148 ft 450 kts 11°
2026-05-07 15:28 56.99889 10.91385 37143 ft 451 kts 11°
2026-05-07 15:29 57.05975 10.94198 37145 ft 451 kts 12°
2026-05-07 15:29 57.12062 10.97019 37147 ft 451 kts 12°
2026-05-07 15:30 57.18109 10.99831 37156 ft 451 kts 11°
2026-05-07 15:30 57.24199 11.02663 37147 ft 451 kts 11°
2026-05-07 15:31 57.30287 11.05507 37139 ft 451 kts 11°
2026-05-07 15:31 57.36374 11.08369 37139 ft 452 kts 11°
2026-05-07 15:32 57.42469 11.11242 37137 ft 452 kts 11°
2026-05-07 15:32 57.48522 11.14105 37144 ft 452 kts 11°
2026-05-07 15:33 57.54623 11.17000 37140 ft 453 kts 11°
2026-05-07 15:33 57.60730 11.19906 37139 ft 453 kts 11°
2026-05-07 15:34 57.66791 11.23209 37136 ft 457 kts 20°
2026-05-07 15:34 57.72604 11.27851 37148 ft 458 kts 19°
2026-05-07 15:35 57.78467 11.32532 37133 ft 458 kts 19°
2026-05-07 15:35 57.84335 11.37233 37130 ft 459 kts 20°
2026-05-07 15:36 57.90205 11.41959 37128 ft 459 kts 20°
2026-05-07 15:36 57.96036 11.46674 37130 ft 459 kts 20°
2026-05-07 15:37 58.01914 11.51440 37144 ft 460 kts 19°
2026-05-07 15:37 58.07803 11.56222 37135 ft 461 kts 19°
2026-05-07 15:38 58.10750 11.58629 36914 ft 461 kts 19°
2026-05-07 15:38 58.13706 11.60924 36651 ft 457 kts 14°
2026-05-07 15:38 58.16719 11.62407 36393 ft 450 kts
2026-05-07 15:38 58.19812 11.62952 36156 ft 444 kts 356°
2026-05-07 15:39 58.25874 11.61679 36119 ft 437 kts 346°
2026-05-07 15:39 58.31887 11.59840 36118 ft 438 kts 347°
2026-05-07 15:40 58.37904 11.58012 36120 ft 438 kts 347°
2026-05-07 15:40 58.43880 11.56159 36121 ft 438 kts 347°
2026-05-07 15:41 58.49892 11.54281 36130 ft 438 kts 347°
2026-05-07 15:41 58.55907 11.52400 36150 ft 438 kts 346°
2026-05-07 15:42 58.61916 11.50518 36140 ft 437 kts 346°
2026-05-07 15:42 58.67878 11.48647 36135 ft 437 kts 346°
2026-05-07 15:43 58.70880 11.47702 35988 ft 437 kts 346°
2026-05-07 15:43 58.73876 11.46760 35737 ft 435 kts 346°
2026-05-07 15:43 58.76859 11.45816 35484 ft 434 kts 346°
2026-05-07 15:43 58.79836 11.44869 35236 ft 433 kts 346°
2026-05-07 15:44 58.82798 11.43919 35016 ft 431 kts 345°
2026-05-07 15:44 58.85747 11.42975 34633 ft 425 kts 345°
2026-05-07 15:44 58.88622 11.42068 34486 ft 413 kts 345°
2026-05-07 15:44 58.91438 11.41179 34248 ft 419 kts 345°
2026-05-07 15:45 58.94319 11.40260 33998 ft 421 kts 345°
2026-05-07 15:45 58.97210 11.39328 33589 ft 423 kts 345°
2026-05-07 15:45 59.00138 11.38385 32565 ft 429 kts 345°
2026-05-07 15:45 59.03096 11.37442 31650 ft 432 kts 345°
2026-05-07 15:46 59.09080 11.35536 29586 ft 441 kts 345°
2026-05-07 15:46 59.12095 11.34534 29006 ft 437 kts 343°
2026-05-07 15:46 59.15088 11.33465 28286 ft 439 kts 346°
2026-05-07 15:47 59.18109 11.33020 27597 ft 446 kts 354°
2026-05-07 15:47 59.21219 11.33552 26893 ft 451 kts
2026-05-07 15:47 59.24251 11.35177 26199 ft 451 kts 12°
2026-05-07 15:47 59.27222 11.37061 25512 ft 447 kts 12°
2026-05-07 15:48 59.30169 11.38948 24831 ft 444 kts 13°
2026-05-07 15:48 59.33092 11.40823 24152 ft 440 kts 13°
2026-05-07 15:48 59.35996 11.42678 23444 ft 438 kts 13°
2026-05-07 15:48 59.38878 11.44510 22805 ft 433 kts 12°
2026-05-07 15:49 59.41683 11.46292 22224 ft 427 kts 12°
2026-05-07 15:49 59.44492 11.48071 21680 ft 421 kts 12°
2026-05-07 15:49 59.47254 11.49814 21161 ft 414 kts 12°
2026-05-07 15:49 59.49980 11.51532 20664 ft 408 kts 12°
2026-05-07 15:50 59.52664 11.53227 20184 ft 403 kts 12°
2026-05-07 15:50 59.55314 11.54901 19810 ft 395 kts 13°
2026-05-07 15:50 59.57883 11.56532 19648 ft 382 kts 12°
2026-05-07 15:50 59.60444 11.58150 18936 ft 395 kts 13°
2026-05-07 15:51 59.63090 11.59814 18335 ft 400 kts 13°
2026-05-07 15:51 59.65704 11.61477 17751 ft 399 kts 13°
2026-05-07 15:51 59.68340 11.63162 17281 ft 397 kts 13°
2026-05-07 15:51 59.70961 11.64843 16771 ft 394 kts 14°
2026-05-07 15:52 59.73560 11.66515 16257 ft 391 kts 14°
2026-05-07 15:52 59.76139 11.68174 15732 ft 389 kts 14°
2026-05-07 15:52 59.78701 11.69823 15207 ft 386 kts 14°
2026-05-07 15:52 59.81245 11.71462 14679 ft 383 kts 14°
2026-05-07 15:53 59.83770 11.73093 14154 ft 380 kts 15°
2026-05-07 15:53 59.86245 11.74691 13597 ft 378 kts 15°
2026-05-07 15:53 59.88733 11.76304 13056 ft 374 kts 15°
2026-05-07 15:53 59.91192 11.77901 12515 ft 370 kts 15°
2026-05-07 15:54 59.93632 11.79483 11993 ft 367 kts 15°
2026-05-07 15:54 59.96048 11.81050 11595 ft 363 kts 15°
2026-05-07 15:54 59.98440 11.82611 11202 ft 361 kts 16°
2026-05-07 15:54 60.00815 11.84167 10816 ft 356 kts 16°
2026-05-07 15:55 60.03119 11.85684 10669 ft 341 kts 16°
2026-05-07 15:55 60.05298 11.87124 10547 ft 328 kts 16°
2026-05-07 15:55 60.07421 11.88527 10417 ft 315 kts 16°
2026-05-07 15:55 60.09465 11.89879 10291 ft 303 kts 16°
2026-05-07 15:56 60.11448 11.91054 10168 ft 291 kts
2026-05-07 15:56 60.13415 11.91652 9935 ft 284 kts
2026-05-07 15:56 60.15361 11.92227 9580 ft 281 kts
2026-05-07 15:56 60.17291 11.92800 9206 ft 280 kts
2026-05-07 15:57 60.19184 11.93366 8824 ft 278 kts
2026-05-07 15:57 60.21095 11.93942 8446 ft 277 kts
2026-05-07 15:57 60.22995 11.94517 8062 ft 276 kts
2026-05-07 15:57 60.24887 11.94586 7854 ft 272 kts 347°
2026-05-07 15:58 60.26602 11.93077 7712 ft 270 kts 321°
2026-05-07 15:58 60.27813 11.90261 7544 ft 267 kts 300°
2026-05-07 15:58 60.28744 11.87028 7324 ft 266 kts 299°
2026-05-07 15:58 60.29671 11.83801 7148 ft 266 kts 299°
2026-05-07 15:59 60.30599 11.80581 6986 ft 266 kts 300°
2026-05-07 15:59 60.31515 11.77403 6830 ft 266 kts 300°
2026-05-07 15:59 60.32444 11.74181 6661 ft 266 kts 300°
2026-05-07 15:59 60.33371 11.70959 6513 ft 266 kts 300°
2026-05-07 16:00 60.34296 11.67734 6346 ft 265 kts 300°
2026-05-07 16:00 60.35219 11.64514 6186 ft 265 kts 300°
2026-05-07 16:00 60.36142 11.61299 6031 ft 264 kts 300°
2026-05-07 16:00 60.37060 11.58093 5861 ft 264 kts 300°
2026-05-07 16:01 60.37975 11.54884 5719 ft 263 kts 300°
2026-05-07 16:01 60.38876 11.51720 5555 ft 263 kts 300°
2026-05-07 16:01 60.39777 11.48559 5416 ft 254 kts 299°
2026-05-07 16:01 60.40639 11.45538 5284 ft 242 kts 299°
2026-05-07 16:02 60.41430 11.42623 5125 ft 232 kts 291°
2026-05-07 16:02 60.41805 11.39490 4978 ft 229 kts 273°
2026-05-07 16:02 60.41659 11.36289 4732 ft 229 kts 256°
2026-05-07 16:02 60.41260 11.33167 4493 ft 229 kts 256°
2026-05-07 16:03 60.40872 11.30109 4357 ft 220 kts 256°
2026-05-07 16:03 60.40453 11.27188 4257 ft 213 kts 246°
2026-05-07 16:03 60.39658 11.24757 4154 ft 210 kts 226°
2026-05-07 16:03 60.38486 11.23042 4057 ft 209 kts 205°
2026-05-07 16:04 60.37106 11.22133 4002 ft 209 kts 197°
2026-05-07 16:04 60.35718 11.21322 3900 ft 205 kts 197°
2026-05-07 16:04 60.34374 11.20537 3668 ft 198 kts 197°
2026-05-07 16:04 60.33060 11.19770 3402 ft 194 kts 197°
2026-05-07 16:05 60.31771 11.19018 3134 ft 192 kts 197°
2026-05-07 16:05 60.30516 11.18286 2872 ft 189 kts 197°
2026-05-07 16:05 60.29270 11.17561 2634 ft 182 kts 197°
2026-05-07 16:05 60.28091 11.16875 2377 ft 171 kts 197°
2026-05-07 16:06 60.27008 11.16246 2159 ft 155 kts 197°
2026-05-07 16:06 60.26006 11.15664 1942 ft 146 kts 197°
2026-05-07 16:06 60.25041 11.15103 1751 ft 143 kts 197°
2026-05-07 16:06 60.24088 11.14550 1543 ft 142 kts 197°
2026-05-07 16:07 60.23141 11.13995 1350 ft 142 kts 197°
2026-05-07 16:07 60.22197 11.13445 1138 ft 141 kts 197°
2026-05-07 16:07 60.21254 11.12917 943 ft 141 kts 197°
2026-05-07 16:07 60.20330 11.12378 777 ft 140 kts 198°
2026-05-07 16:08 60.19418 11.11842 686 ft 127 kts 197°
2026-05-07 16:08 60.18716 11.11433 684 ft 80 kts 196°
2026-05-07 16:08 60.18342 11.11215 683 ft 37 kts 196°
2026-05-07 16:08 60.18117 11.11045 679 ft 27 kts 211°
2026-05-07 16:09 60.18042 11.10817 680 ft 19 kts 275°
2026-05-07 16:09 60.18130 11.10702 677 ft 16 kts 13°
2026-05-07 16:09 60.18239 11.10771 678 ft 17 kts 16°
2026-05-07 16:09 60.18350 11.10833 680 ft 17 kts 15°
2026-05-07 16:10 60.18461 11.10896 681 ft 17 kts 17°
2026-05-07 16:10 60.18575 11.10961 682 ft 18 kts 15°
2026-05-07 16:10 60.18698 11.11031 683 ft 19 kts 16°
2026-05-07 16:10 60.18831 11.11108 683 ft 21 kts 16°
2026-05-07 16:11 60.18975 11.11193 683 ft 22 kts 16°
2026-05-07 16:11 60.19126 11.11279 683 ft 23 kts 15°
2026-05-07 16:11 60.19284 11.11367 682 ft 24 kts 16°
2026-05-07 16:11 60.19440 11.11460 682 ft 22 kts 16°
2026-05-07 16:12 60.19568 11.11534 683 ft 15 kts 17°
2026-05-07 16:12 60.19660 11.11588 684 ft 13 kts 16°
2026-05-07 16:12 60.19732 11.11630 684 ft 11 kts 16°
2026-05-07 16:12 60.19793 11.11652 685 ft 9 kts 350°
2026-05-07 16:13 60.19827 11.11549 682 ft 9 kts 281°
2026-05-07 16:13 60.19846 11.11409 683 ft 15 kts 285°
2026-05-07 16:13 60.19878 11.11181 683 ft 18 kts 286°
2026-05-07 16:13 60.19914 11.10934 682 ft 19 kts 286°
2026-05-07 16:14 60.19947 11.10672 684 ft 19 kts 271°
2026-05-07 16:14 60.19844 11.10549 682 ft 18 kts 195°
2026-05-07 16:14 60.19746 11.10492 684 ft 9 kts 195°
2026-05-07 16:14 60.19699 11.10446 685 ft 6 kts 236°
2026-05-07 16:15 60.19699 11.10380 685 ft 4 kts 287°
2026-05-07 16:15 60.19705 11.10337 685 ft 3 kts 287°
2026-05-07 16:15 60.19709 11.10310 680 ft 2 kts 286°
2026-05-07 16:15 60.19714 11.10280 680 ft 3 kts 285°
2026-05-07 16:16 60.19718 11.10250 685 ft 2 kts 286°
2026-05-07 16:16 60.19719 11.10243 685 ft 0 kts 286°